| time (UTC) | temp F | wind direction | speed MPH | gust MPH | rain 1hr in | rain 24hr in | rain mn in | humidity % | barometer mb |
| 20260504034301 | 51 | 300 | 0.0 | 1.0 | 0.00 | 0.00 | 0.00 | 51 | 1014.6 |
| 20260504033513 | 51 | 300 | 0.0 | 1.0 | 0.00 | 0.00 | 0.00 | 51 | 1014.7 |
| 20260504033002 | 51 | 300 | 0.0 | 1.0 | 0.00 | 0.00 | 0.00 | 51 | 1014.6 |
| 20260504032727 | 51 | 300 | 0.0 | 1.0 | 0.00 | 0.00 | 0.00 | 50 | 1014.7 |
| 20260504031958 | 51 | 300 | 0.0 | 1.0 | 0.00 | 0.00 | 0.00 | 50 | 1014.6 |
| 20260504031725 | 51 | 300 | 0.0 | 1.0 | 0.00 | 0.00 | 0.00 | 50 | 1014.6 |
| 20260504031416 | 51 | 300 | 0.0 | 1.0 | 0.00 | 0.00 | 0.00 | 50 | 1014.6 |
| 20260504030426 | 51 | 295 | 0.0 | 1.0 | 0.00 | 0.00 | 0.00 | 50 | 1014.5 |
| 20260504025901 | 51 | 295 | 0.0 | 1.0 | 0.00 | 0.00 | 0.00 | 50 | 1014.6 |
| 20260504025333 | 51 | 295 | 0.0 | 1.0 | 0.00 | 0.00 | 0.00 | 49 | 1014.6 |
| 20260504024832 | 51 | 295 | 0.0 | 1.0 | 0.00 | 0.00 | 0.00 | 49 | 1014.6 |
| 20260504024306 | 51 | 295 | 0.0 | 1.0 | 0.00 | 0.00 | 0.00 | 49 | 1014.6 |
| 20260504023736 | 52 | 295 | 0.0 | 3.0 | 0.00 | 0.00 | 0.00 | 49 | 1014.6 |
| 20260504023235 | 52 | 295 | 0.0 | 3.0 | 0.00 | 0.00 | 0.00 | 48 | 1014.6 |
| 20260504022707 | 52 | 283 | 0.0 | 1.0 | 0.00 | 0.00 | 0.00 | 48 | 1014.6 |
| 20260504022203 | 52 | 283 | 0.0 | 1.0 | 0.00 | 0.00 | 0.00 | 49 | 1014.6 |
| 20260504021640 | 52 | 283 | 0.0 | 1.0 | 0.00 | 0.00 | 0.00 | 49 | 1014.6 |
| 20260504021124 | 52 | 283 | 0.0 | 1.0 | 0.00 | 0.00 | 0.00 | 48 | 1014.6 |
| 20260504020626 | 52 | 283 | 0.0 | 1.0 | 0.00 | 0.00 | 0.00 | 48 | 1014.7 |
| 20260504020107 | 52 | 283 | 0.0 | 1.0 | 0.00 | 0.00 | 0.00 | 49 | 1014.6 |
| 20260504015820 | 52 | 283 | 0.0 | 1.0 | 0.00 | 0.00 | 0.00 | 49 | 1014.6 |
| 20260504015027 | 52 | 283 | 0.0 | 1.0 | 0.00 | 0.00 | 0.00 | 49 | 1014.6 |
| 20260504014508 | 52 | 283 | 0.0 | 1.0 | 0.00 | 0.00 | 0.00 | 49 | 1014.5 |
| 20260504014226 | 51 | 283 | 0.0 | 1.0 | 0.00 | 0.00 | 0.00 | 50 | 1014.5 |
| 20260504013501 | 51 | 283 | 0.0 | 1.0 | 0.00 | 0.00 | 0.00 | 50 | 1014.5 |
| 20260504012942 | 52 | 283 | 0.0 | 1.0 | 0.00 | 0.00 | 0.00 | 50 | 1014.5 |
| 20260504012423 | 52 | 284 | 0.0 | 0.0 | 0.00 | 0.00 | 0.00 | 50 | 1014.4 |
| 20260504011911 | 52 | 284 | 0.0 | 0.0 | 0.00 | 0.00 | 0.00 | 49 | 1014.3 |
| 20260504011409 | 52 | 284 | 0.0 | 1.0 | 0.00 | 0.00 | 0.00 | 48 | 1014.3 |
| 20260504011135 | 53 | 284 | 0.0 | 1.0 | 0.00 | 0.00 | 0.00 | 48 | 1014.2 |
| 20260504010405 | 53 | 284 | 0.0 | 1.0 | 0.00 | 0.00 | 0.00 | 47 | 1014.1 |
| 20260504005844 | 53 | 284 | 0.0 | 1.0 | 0.00 | 0.00 | 0.00 | 46 | 1014.1 |
| 20260504005321 | 54 | 284 | 0.0 | 0.0 | 0.00 | 0.00 | 0.00 | 45 | 1014.0 |
| 20260504005028 | 54 | 284 | 0.0 | 0.0 | 0.00 | 0.00 | 0.00 | 44 | 1013.9 |
| 20260504004245 | 54 | 284 | 0.0 | 0.0 | 0.00 | 0.00 | 0.00 | 44 | 1013.9 |
| 20260504003730 | 55 | 284 | 0.0 | 1.0 | 0.00 | 0.00 | 0.00 | 43 | 1013.7 |
| 20260504003204 | 55 | 284 | 0.0 | 1.0 | 0.00 | 0.00 | 0.00 | 42 | 1013.6 |
| 20260504003143 | 56 | 284 | 0.0 | 1.0 | 0.00 | 0.00 | 0.00 | 41 | 1013.6 |
| 20260504002131 | 56 | 284 | 0.0 | 1.0 | 0.00 | 0.00 | 0.00 | 40 | 1013.5 |
| 20260504001632 | 56 | 284 | 0.0 | 1.0 | 0.00 | 0.00 | 0.00 | 39 | 1013.4 |
| 20260504001355 | 57 | 284 | 0.0 | 1.0 | 0.00 | 0.00 | 0.00 | 38 | 1013.3 |
| 20260504000620 | 57 | 284 | 0.0 | 2.0 | 0.00 | 0.00 | 0.00 | 37 | 1013.4 |
| 20260504000120 | 58 | 284 | 0.0 | 2.0 | 0.00 | 0.00 | 0.00 | 37 | 1013.3 |
| 20260503235557 | 58 | 284 | 1.0 | 6.0 | 0.00 | 0.00 | 0.00 | 36 | 1013.3 |
| 20260503235040 | 58 | 328 | 1.0 | 6.0 | 0.00 | 0.00 | 0.00 | 35 | 1013.2 |
| 20260503234515 | 58 | 250 | 0.0 | 5.0 | 0.00 | 0.00 | 0.00 | 35 | 1013.3 |
| 20260503234012 | 59 | 282 | 0.0 | 3.0 | 0.00 | 0.00 | 0.00 | 35 | 1013.2 |
| 20260503233717 | 59 | 303 | 0.0 | 2.0 | 0.00 | 0.00 | 0.00 | 34 | 1013.1 |
| 20260503232947 | 59 | 279 | 1.0 | 2.0 | 0.00 | 0.00 | 0.00 | 34 | 1013.1 |
| 20260503232408 | 60 | 287 | 1.0 | 6.0 | 0.00 | 0.00 | 0.00 | 33 | 1013.1 |
| 20260503231906 | 60 | 309 | 2.0 | 6.0 | 0.00 | 0.00 | 0.00 | 33 | 1013.0 |
| 20260503231403 | 61 | 283 | 2.0 | 5.0 | 0.00 | 0.00 | 0.00 | 32 | 1013.0 |
| 20260503231345 | 61 | 301 | 2.0 | 8.0 | 0.00 | 0.00 | 0.00 | 31 | 1013.0 |
| 20260503230625 | 61 | 333 | 2.0 | 8.0 | 0.00 | 0.00 | 0.00 | 31 | 1012.9 |
| 20260503225831 | 61 | 233 | 2.0 | 7.0 | 0.00 | 0.00 | 0.00 | 31 | 1012.9 |
| 20260503225300 | 61 | 329 | 1.0 | 7.0 | 0.00 | 0.00 | 0.00 | 32 | 1012.9 |
| 20260503224736 | 61 | 295 | 2.0 | 7.0 | 0.00 | 0.00 | 0.00 | 32 | 1013.0 |
| 20260503224228 | 61 | 297 | 3.0 | 8.0 | 0.00 | 0.00 | 0.00 | 31 | 1012.9 |
| 20260503223726 | 60 | 330 | 4.0 | 12.0 | 0.00 | 0.00 | 0.00 | 31 | 1012.9 |
| 20260503223220 | 61 | 216 | 4.0 | 12.0 | 0.00 | 0.00 | 0.00 | 31 | 1012.9 |
| 20260503222719 | 61 | 248 | 4.0 | 10.0 | 0.00 | 0.00 | 0.00 | 30 | 1013.0 |
| 20260503222431 | 61 | 284 | 3.0 | 11.0 | 0.00 | 0.00 | 0.00 | 30 | 1013.0 |
| 20260503221708 | 61 | 278 | 3.0 | 11.0 | 0.00 | 0.00 | 0.00 | 30 | 1012.9 |
| 20260503221141 | 62 | 293 | 4.0 | 14.0 | 0.00 | 0.00 | 0.00 | 31 | 1013.0 |
| 20260503220616 | 61 | 307 | 4.0 | 14.0 | 0.00 | 0.00 | 0.00 | 31 | 1012.9 |
| 20260503220104 | 62 | 293 | 3.0 | 11.0 | 0.00 | 0.00 | 0.00 | 30 | 1013.0 |
| 20260503215521 | 61 | 305 | 4.0 | 11.0 | 0.00 | 0.00 | 0.00 | 30 | 1012.9 |
| 20260503215020 | 61 | 290 | 4.0 | 14.0 | 0.00 | 0.00 | 0.00 | 30 | 1013.1 |
| 20260503214508 | 61 | 330 | 4.0 | 14.0 | 0.00 | 0.00 | 0.00 | 30 | 1013.0 |
| 20260503214010 | 62 | 223 | 4.0 | 7.0 | 0.00 | 0.00 | 0.00 | 30 | 1013.0 |
| 20260503213704 | 61 | 345 | 4.0 | 12.0 | 0.00 | 0.00 | 0.00 | 29 | 1013.0 |
| 20260503213209 | 61 | 295 | 3.0 | 10.0 | 0.00 | 0.00 | 0.00 | 29 | 1013.0 |
| 20260503212415 | 61 | 300 | 4.0 | 8.0 | 0.00 | 0.00 | 0.00 | 30 | 1013.0 |
| 20260503211905 | 61 | 307 | 5.0 | 11.0 | 0.00 | 0.00 | 0.00 | 30 | 1013.0 |
| 20260503211404 | 61 | 302 | 4.0 | 10.0 | 0.00 | 0.00 | 0.00 | 30 | 1012.9 |
| 20260503210840 | 61 | 278 | 3.0 | 11.0 | 0.00 | 0.00 | 0.00 | 31 | 1012.9 |
| 20260503210310 | 61 | 274 | 3.0 | 10.0 | 0.00 | 0.00 | 0.00 | 30 | 1013.0 |
| 20260503205807 | 61 | 318 | 3.0 | 10.0 | 0.00 | 0.00 | 0.00 | 32 | 1013.0 |
| 20260503205241 | 61 | 311 | 4.0 | 11.0 | 0.00 | 0.00 | 0.00 | 32 | 1013.0 |
| 20260503204738 | 61 | 258 | 5.0 | 11.0 | 0.00 | 0.00 | 0.00 | 32 | 1013.0 |
| 20260503204210 | 61 | 158 | 4.0 | 15.0 | 0.00 | 0.00 | 0.00 | 31 | 1013.0 |
| 20260503203708 | 60 | 252 | 4.0 | 15.0 | 0.00 | 0.00 | 0.00 | 32 | 1013.1 |
| 20260503203423 | 60 | 248 | 5.0 | 18.0 | 0.00 | 0.00 | 0.00 | 32 | 1013.0 |
| 20260503202656 | 60 | 293 | 5.0 | 18.0 | 0.00 | 0.00 | 0.00 | 32 | 1013.2 |
| 20260503202426 | 60 | 312 | 5.0 | 14.0 | 0.00 | 0.00 | 0.00 | 32 | 1013.2 |
| 20260503201626 | 60 | 292 | 6.0 | 14.0 | 0.00 | 0.00 | 0.00 | 32 | 1013.3 |
| 20260503201349 | 60 | 282 | 5.0 | 16.0 | 0.00 | 0.00 | 0.00 | 32 | 1013.4 |
| 20260503200555 | 60 | 262 | 4.0 | 13.0 | 0.00 | 0.00 | 0.00 | 32 | 1013.3 |
| 20260503195522 | 59 | 288 | 5.0 | 14.0 | 0.00 | 0.00 | 0.00 | 33 | 1013.4 |
| 20260503194958 | 59 | 338 | 5.0 | 13.0 | 0.00 | 0.00 | 0.00 | 33 | 1013.4 |
| 20260503194432 | 59 | 266 | 5.0 | 13.0 | 0.00 | 0.00 | 0.00 | 32 | 1013.5 |
| 20260503193903 | 59 | 274 | 4.0 | 13.0 | 0.00 | 0.00 | 0.00 | 33 | 1013.4 |
| 20260503193400 | 59 | 329 | 3.0 | 13.0 | 0.00 | 0.00 | 0.00 | 33 | 1013.5 |
| 20260503193347 | 58 | 287 | 5.0 | 14.0 | 0.00 | 0.00 | 0.00 | 35 | 1013.5 |
| 20260503192330 | 59 | 245 | 5.0 | 14.0 | 0.00 | 0.00 | 0.00 | 34 | 1013.7 |
| 20260503191828 | 59 | 15 | 4.0 | 11.0 | 0.00 | 0.00 | 0.00 | 33 | 1013.7 |
| 20260503191259 | 60 | 297 | 4.0 | 10.0 | 0.00 | 0.00 | 0.00 | 34 | 1013.7 |
| 20260503191019 | 59 | 287 | 4.0 | 11.0 | 0.00 | 0.00 | 0.00 | 35 | 1013.7 |
| 20260503190234 | 58 | 323 | 4.0 | 13.0 | 0.00 | 0.00 | 0.00 | 35 | 1013.6 |
| 20260503185938 | 58 | 231 | 5.0 | 13.0 | 0.00 | 0.00 | 0.00 | 34 | 1013.9 |
| 20260503185202 | 58 | 295 | 5.0 | 16.0 | 0.00 | 0.00 | 0.00 | 34 | 1014.0 |
| 20260503184658 | 58 | 292 | 5.0 | 16.0 | 0.00 | 0.00 | 0.00 | 32 | 1013.9 |
| 20260503184157 | 58 | 288 | 5.0 | 13.0 | 0.00 | 0.00 | 0.00 | 34 | 1013.9 |
| 20260503183628 | 58 | 288 | 5.0 | 13.0 | 0.00 | 0.00 | 0.00 | 32 | 1014.0 |
| 20260503183347 | 58 | 298 | 5.0 | 14.0 | 0.00 | 0.00 | 0.00 | 33 | 1014.1 |
| 20260503182602 | 58 | 262 | 5.0 | 14.0 | 0.00 | 0.00 | 0.00 | 33 | 1014.0 |
| 20260503182033 | 58 | 354 | 5.0 | 13.0 | 0.00 | 0.00 | 0.00 | 33 | 1014.0 |
| 20260503181534 | 58 | 302 | 5.0 | 14.0 | 0.00 | 0.00 | 0.00 | 33 | 1014.1 |
| 20260503181008 | 58 | 278 | 5.0 | 14.0 | 0.00 | 0.00 | 0.00 | 32 | 1014.1 |
| 20260503180440 | 58 | 299 | 4.0 | 14.0 | 0.00 | 0.00 | 0.00 | 33 | 1014.2 |
| 20260503175940 | 58 | 321 | 4.0 | 14.0 | 0.00 | 0.00 | 0.00 | 32 | 1014.1 |
| 20260503175427 | 57 | 323 | 4.0 | 11.0 | 0.00 | 0.00 | 0.00 | 34 | 1014.1 |
| 20260503175123 | 57 | 309 | 4.0 | 11.0 | 0.00 | 0.00 | 0.00 | 35 | 1014.1 |
| 20260503174618 | 57 | 326 | 5.0 | 13.0 | 0.00 | 0.00 | 0.00 | 36 | 1014.2 |
| 20260503173849 | 56 | 295 | 5.0 | 13.0 | 0.00 | 0.00 | 0.00 | 35 | 1014.4 |
| 20260503173616 | 57 | 311 | 3.0 | 12.0 | 0.00 | 0.00 | 0.00 | 34 | 1014.4 |
| 20260503172833 | 56 | 328 | 4.0 | 12.0 | 0.00 | 0.00 | 0.00 | 38 | 1014.4 |
| 20260503172314 | 55 | 312 | 4.0 | 13.0 | 0.00 | 0.00 | 0.00 | 38 | 1014.5 |
| 20260503171748 | 55 | 211 | 4.0 | 13.0 | 0.00 | 0.00 | 0.00 | 36 | 1014.4 |
| 20260503171234 | 56 | 304 | 5.0 | 27.0 | 0.00 | 0.00 | 0.00 | 35 | 1014.5 |
| 20260503170712 | 56 | 297 | 4.0 | 27.0 | 0.00 | 0.00 | 0.00 | 36 | 1014.4 |
| 20260503170203 | 56 | 291 | 3.0 | 9.0 | 0.00 | 0.00 | 0.00 | 37 | 1014.4 |
| 20260503150207 | 51 | 296 | 4.0 | 13.0 | 0.00 | 0.00 | 0.00 | 45 | 1014.9 |
| 20260503131142 | 50 | 301 | 4.0 | 17.0 | 0.00 | 0.00 | 0.00 | 50 | 1014.6 |
| 20260503130612 | 49 | 302 | 3.0 | 13.0 | 0.00 | 0.00 | 0.00 | 52 | 1014.5 |
| 20260503130112 | 49 | 324 | 3.0 | 9.0 | 0.00 | 0.00 | 0.00 | 53 | 1014.4 |
| 20260503120144 | 46 | 314 | 3.0 | 12.0 | 0.00 | 0.00 | 0.00 | 60 | 1014.1 |
| 20260503110431 | 45 | 306 | 2.0 | 9.0 | 0.00 | 0.00 | 0.00 | 65 | 1013.5 |
| 20260503100228 | 45 | 310 | 2.0 | 7.0 | 0.00 | 0.00 | 0.00 | 68 | 1012.7 |
| 20260503080921 | 44 | 323 | 1.0 | 6.0 | 0.00 | 0.00 | 0.00 | 70 | 1012.0 |
| 20260503080639 | 44 | 292 | 2.0 | 4.0 | 0.00 | 0.00 | 0.00 | 69 | 1012.0 |
| 20260503072653 | 45 | 296 | 0.0 | 3.0 | 0.00 | 0.00 | 0.00 | 68 | 1011.2 |
| 20260503072124 | 45 | 301 | 0.0 | 3.0 | 0.00 | 0.00 | 0.00 | 68 | 1011.3 |
| 20260503071616 | 45 | 287 | 0.0 | 5.0 | 0.00 | 0.00 | 0.00 | 68 | 1011.2 |
| 20260503071114 | 45 | 317 | 0.0 | 5.0 | 0.00 | 0.00 | 0.00 | 67 | 1011.4 |
| 20260503070612 | 45 | 320 | 1.0 | 6.0 | 0.00 | 0.00 | 0.00 | 67 | 1011.5 |
| 20260503060218 | 47 | 302 | 1.0 | 3.0 | 0.00 | 0.00 | 0.00 | 62 | 1011.8 |
| 20260503054646 | 48 | 257 | 1.0 | 7.0 | 0.00 | 0.00 | 0.00 | 61 | 1011.5 |
| 20260503054117 | 48 | 309 | 1.0 | 7.0 | 0.00 | 0.00 | 0.00 | 60 | 1011.4 |
| 20260503053615 | 49 | 326 | 1.0 | 6.0 | 0.00 | 0.00 | 0.00 | 59 | 1011.6 |
| 20260503053050 | 49 | 281 | 1.0 | 6.0 | 0.00 | 0.00 | 0.00 | 59 | 1011.7 |
| 20260503052743 | 49 | 303 | 1.0 | 6.0 | 0.00 | 0.00 | 0.00 | 58 | 1011.7 |
| 20260503052245 | 49 | 299 | 2.0 | 8.0 | 0.00 | 0.00 | 0.00 | 58 | 1011.7 |
| 20260503051516 | 50 | 304 | 2.0 | 9.0 | 0.00 | 0.00 | 0.00 | 57 | 1011.9 |
| 20260503051014 | 50 | 328 | 3.0 | 9.0 | 0.00 | 0.00 | 0.00 | 57 | 1011.8 |
| 20260503050506 | 50 | 340 | 3.0 | 9.0 | 0.00 | 0.00 | 0.00 | 56 | 1011.9 |
| 20260503050005 | 50 | 319 | 3.0 | 8.0 | 0.00 | 0.00 | 0.00 | 56 | 1012.0 |
| 20260503045439 | 50 | 331 | 3.0 | 7.0 | 0.00 | 0.00 | 0.00 | 56 | 1011.9 |
| 20260503044908 | 50 | 299 | 2.0 | 7.0 | 0.00 | 0.00 | 0.00 | 56 | 1012.0 |
| 20260503044603 | 50 | 297 | 2.0 | 9.0 | 0.00 | 0.00 | 0.00 | 56 | 1012.0 |
| 20260503043837 | 51 | 309 | 2.0 | 9.0 | 0.00 | 0.00 | 0.00 | 55 | 1012.1 |
| 20260503043325 | 51 | 316 | 2.0 | 9.0 | 0.00 | 0.00 | 0.00 | 55 | 1012.1 |
| 20260503042826 | 51 | 291 | 2.0 | 9.0 | 0.00 | 0.00 | 0.00 | 55 | 1012.2 |
| 20260503042259 | 51 | 323 | 2.0 | 7.0 | 0.00 | 0.00 | 0.00 | 55 | 1012.3 |
| 20260503041755 | 51 | 294 | 2.0 | 6.0 | 0.00 | 0.00 | 0.00 | 55 | 1012.3 |
| 20260503041230 | 51 | 290 | 2.0 | 6.0 | 0.00 | 0.00 | 0.00 | 55 | 1012.4 |
| 20260503040943 | 51 | 317 | 2.0 | 9.0 | 0.00 | 0.00 | 0.00 | 55 | 1012.4 |
| 20260503040443 | 51 | 305 | 3.0 | 9.0 | 0.00 | 0.00 | 0.00 | 55 | 1012.4 |
| 20260503035714 | 51 | 297 | 3.0 | 9.0 | 0.00 | 0.00 | 0.00 | 55 | 1012.5 |
| 20260503035214 | 51 | 302 | 2.0 | 7.0 | 0.00 | 0.00 | 0.00 | 55 | 1012.4 |